DateTimeUTC,F1_A11,F1_S11,BsB_S11,BsG_S11,BsR_S11,BbsB_S11,BbsG_S11,BbsR_S11,BaB_A11,BaG_A11,BaR_A11,Tu_S11,T_S11,Uu_S11,U_S11,P_S11,T1_A11
2021-12-05T13:00:00Z,00000200,21000000,,,,,,,0000.15,-000.04,0000.19,20.8,27.4,,00.0,0632.9,31.3
2021-12-05T13:01:00Z,00000200,21000000,,,,,,,0000.18,0000.07,-000.06,20.8,27.4,,00.0,0632.9,31.3
2021-12-05T13:02:00Z,00000200,21000000,,,,,,,0000.09,0000.14,0000.15,20.8,27.4,,00.0,0632.9,31.2
2021-12-05T13:03:00Z,00000200,61000000,,,,,,,-000.31,0000.06,0000.20,20.8,27.4,,00.0,0632.9,31.2
2021-12-05T13:04:00Z,00000200,41000000,0000.50,0000.03,-000.05,0000.15,0000.23,0000.32,0000.12,0000.34,-000.28,20.8,27.3,,00.0,0633.7,31.2
2021-12-05T13:05:00Z,00000200,01000000,0000.65,0000.06,0000.25,0000.36,-000.11,0000.26,0000.56,-000.32,0000.39,20.8,27.2,,00.0,0633.8,31.2
2021-12-05T13:06:00Z,00000200,01000000,0000.74,-000.17,0000.12,0000.44,0000.07,0000.13,-000.24,0000.40,-000.16,20.8,27.2,,00.0,0633.8,31.2
2021-12-05T13:07:00Z,00000200,01000000,0000.43,0000.23,-000.23,0000.46,0000.10,0000.14,-000.32,-000.32,-000.37,20.8,27.1,,00.0,0633.7,31.1
2021-12-05T13:08:00Z,00000200,01000000,0000.18,-000.15,0000.48,0000.33,-000.09,0000.20,0000.19,0000.41,0000.52,20.8,27.1,,00.0,0633.7,31.2
2021-12-05T13:09:00Z,00000200,01000000,0000.42,0000.22,0000.45,-000.40,0000.10,0000.16,0000.27,-000.14,-000.02,20.8,27.2,,00.0,0633.7,31.2
2021-12-05T13:10:00Z,00000200,01000000,0000.54,-000.01,0000.14,0000.38,0000.08,-000.09,0000.22,0000.32,0000.27,20.9,27.2,,00.0,0633.7,31.2
2021-12-05T13:11:00Z,00000200,01000000,-000.23,0000.10,0000.06,0000.54,-000.30,-000.04,-000.11,-000.04,-000.28,20.9,27.2,00.0,00.0,0633.7,31.2
2021-12-05T13:12:00Z,00000200,01000000,-000.13,-000.03,0000.01,0000.20,0000.17,0000.23,0000.10,0000.19,0000.27,21.0,27.2,,00.0,0633.6,31.2
2021-12-05T13:13:00Z,00000200,01000000,0000.17,-000.05,-000.08,-000.35,-000.20,0000.09,0000.07,-000.12,0000.22,21.1,27.3,00.0,00.0,0633.7,31.2
2021-12-05T13:14:00Z,00000200,01000000,0000.51,0000.10,0000.10,0000.38,-000.02,0000.12,-000.21,-000.08,-000.01,21.1,27.3,,00.0,0633.7,31.3
2021-12-05T13:15:00Z,00000200,01000000,0000.44,0000.13,0000.21,0000.68,0000.19,0000.25,0000.06,0000.15,-000.34,21.2,27.3,,00.0,0633.7,31.3
2021-12-05T13:16:00Z,00000200,01000000,-000.21,0000.06,0000.21,-000.33,-000.16,0000.30,0000.50,0000.36,0000.21,21.2,27.4,,00.0,0633.6,31.3
2021-12-05T13:17:00Z,00000200,01000000,-000.04,0000.13,0000.19,0000.05,-000.22,0000.04,0000.18,-000.04,0000.34,21.2,27.4,00.0,00.0,0633.6,31.3
2021-12-05T13:18:00Z,00000200,01000000,0000.55,0000.25,-000.13,-000.07,-000.13,0000.15,0000.03,0000.28,-000.11,21.1,27.4,,00.0,0633.6,31.2
2021-12-05T13:19:00Z,00000200,01000000,-000.15,0000.10,0000.14,0000.47,-000.08,-000.15,-000.10,-000.07,-000.04,21.1,27.3,,00.0,0633.6,31.2
2021-12-05T13:20:00Z,00000200,01000000,-000.19,0000.06,-000.07,0000.24,0000.08,0000.21,0000.01,-000.05,0000.37,21.0,27.3,,00.0,0633.5,31.2
2021-12-05T13:21:00Z,00000200,01000000,0000.01,0000.11,0000.14,-000.44,0000.26,0000.57,0000.10,-000.24,-000.35,21.0,27.3,,00.0,0633.4,31.2
2021-12-05T13:22:00Z,00000200,01000000,-000.47,0000.25,0000.17,0000.16,0000.16,0000.40,0000.15,0000.45,0000.20,21.0,27.3,,00.0,0633.5,31.2
2021-12-05T13:23:00Z,00000200,01000000,-000.60,0000.30,-000.13,0000.12,-000.15,0000.18,-000.06,0000.00,-000.07,21.0,27.3,,00.0,0633.5,31.2
2021-12-05T13:24:00Z,00000200,01000000,0000.78,0000.04,-000.18,-000.54,0000.25,0000.05,0000.27,0000.15,0000.25,21.0,27.3,,00.0,0633.5,31.2
2021-12-05T13:25:00Z,00000200,01000000,-000.56,0000.07,0000.14,-000.03,-000.10,-000.06,0000.20,0000.26,0000.07,21.1,27.3,,00.0,0633.4,31.2
2021-12-05T13:26:00Z,00000200,01000000,0000.04,-000.17,-000.24,-000.60,0000.20,-000.14,0000.20,-000.19,-000.02,21.2,27.4,,00.0,0633.4,31.2
2021-12-05T13:27:00Z,00000200,01000000,0000.11,0000.11,-000.15,-000.04,0000.18,0000.25,0000.05,0000.34,0000.27,21.2,27.4,,00.0,0633.3,31.2
2021-12-05T13:28:00Z,00000200,01000000,0000.47,0000.05,0000.25,0000.40,-000.24,0000.05,-000.23,-000.30,0000.13,21.2,27.4,,00.0,0633.3,31.2
2021-12-05T13:29:00Z,00000200,01000000,0000.82,0000.13,-000.09,0000.72,-000.08,-000.29,0000.12,0000.21,-000.26,21.2,27.4,,00.0,0633.3,31.2
2021-12-05T13:30:00Z,00000200,01000000,-000.41,-000.22,-000.01,0000.18,0000.14,0000.08,0000.62,0000.00,0000.37,21.1,27.4,,00.0,0633.3,31.2
2021-12-05T13:31:00Z,00000200,01000000,0000.24,0000.28,0000.10,0000.06,0000.09,-000.08,-000.07,0000.39,0000.01,21.1,27.4,,00.0,0633.2,31.2
2021-12-05T13:32:00Z,00000200,01000000,0000.37,-000.26,0000.14,-000.31,0000.34,-000.07,-000.20,0000.06,-000.11,21.0,27.3,,00.0,0633.2,31.2
2021-12-05T13:33:00Z,00000200,01000000,-000.78,0000.19,0000.43,0000.03,0000.14,0000.17,0000.14,-000.12,0000.39,21.0,27.3,,00.0,0633.1,31.2
2021-12-05T13:34:00Z,00000200,01000000,0000.37,0000.20,0000.38,0000.18,0000.03,0000.12,-000.07,-000.04,-000.25,20.9,27.3,,00.0,0633.0,31.2
2021-12-05T13:35:00Z,00000200,01000000,-000.42,0000.32,-000.08,0000.32,0000.08,0000.02,0000.26,0000.32,0000.26,20.9,27.3,00.0,00.0,0632.9,31.2
2021-12-05T13:36:00Z,00000200,01000000,-000.37,0000.15,-000.06,-000.03,-000.11,0000.31,-000.15,-000.20,-000.11,20.9,27.2,,00.0,0632.9,31.1
2021-12-05T13:37:00Z,00000200,01000000,0000.24,0000.36,0000.11,0000.14,-000.21,0000.10,0000.10,-000.11,0000.29,20.9,27.2,,00.0,0633.0,31.1
2021-12-05T13:38:00Z,00000200,01000000,0000.19,-000.35,0000.21,0000.48,-000.06,0000.28,0000.15,0000.04,-000.34,20.9,27.2,,00.0,0632.8,31.2
2021-12-05T13:39:00Z,00000200,01000000,0000.05,-000.09,0000.04,0000.04,-000.03,-000.05,-000.16,0000.23,0000.13,20.9,27.2,,00.0,0632.8,31.2
2021-12-05T13:40:00Z,00000200,01000000,-000.25,0000.12,0000.22,0000.24,0000.07,0000.11,0000.24,-000.00,0000.19,21.0,27.3,,00.0,0632.7,31.2
2021-12-05T13:41:00Z,00000200,01000000,-000.04,-000.22,0000.24,0000.06,-000.04,-000.28,0000.26,0000.25,0000.03,21.1,27.3,,00.0,0632.8,31.2
2021-12-05T13:42:00Z,00000200,01000000,0000.01,-000.18,0000.39,-000.18,0000.26,0000.28,-000.18,-000.14,-000.16,21.1,27.3,,00.0,0632.9,31.2
2021-12-05T13:43:00Z,00000200,01000000,0000.40,0000.46,0000.32,0000.04,-000.03,0000.02,0000.04,0000.19,0000.24,21.2,27.3,,00.0,0632.9,31.2
2021-12-05T13:44:00Z,00000200,01000000,-000.32,-000.05,0000.23,0000.14,0000.07,0000.08,0000.20,-000.17,0000.02,21.3,27.4,,00.0,0632.9,31.2
2021-12-05T13:45:00Z,00000200,01000000,0000.36,0000.06,-000.09,0000.39,0000.04,-000.28,0000.46,0000.31,0000.20,21.3,27.4,,00.0,0633.0,31.3
2021-12-05T13:46:00Z,00000200,01000000,0000.59,0000.17,0000.13,0000.94,0000.01,0000.00,-000.28,-000.03,-000.05,21.3,27.5,,00.0,0632.9,31.3
2021-12-05T13:47:00Z,00000200,01000000,-000.03,0000.15,0000.06,0000.08,0000.18,-000.10,-000.33,0000.30,-000.16,21.2,27.4,,00.0,0632.9,31.2
2021-12-05T13:48:00Z,00000200,01000000,-000.15,-000.07,-000.12,-000.02,-000.17,0000.02,0000.58,0000.12,0000.24,21.1,27.4,,00.0,0632.9,31.2
2021-12-05T13:49:00Z,00000200,01000000,-000.21,0000.43,0000.28,-000.50,0000.03,-000.10,0000.14,-000.01,0000.03,21.1,27.4,,00.0,0632.7,31.2
2021-12-05T13:50:00Z,00000200,01000000,0000.18,0000.12,0000.20,-000.31,0000.35,0000.19,-000.14,-000.12,0000.17,21.1,27.3,,00.0,0632.7,31.2
2021-12-05T13:51:00Z,00000200,01000000,-000.20,0000.01,0000.17,0000.45,0000.22,-000.02,0000.01,0000.23,-000.27,21.0,27.3,,00.0,0632.5,31.2
2021-12-05T13:52:00Z,00000200,01000000,0000.27,-000.28,-000.04,0000.36,-000.09,-000.18,0000.19,-000.27,0000.15,21.0,27.3,,00.0,0632.4,31.2
2021-12-05T13:53:00Z,00000200,01000000,-000.00,-000.18,0000.01,0000.26,-000.10,0000.24,-000.19,0000.23,0000.19,21.0,27.3,,00.0,0632.3,31.2
2021-12-05T13:54:00Z,00000200,01000000,0000.57,0000.27,0000.02,0000.48,0000.05,0000.13,0000.26,0000.16,-000.19,21.1,27.3,00.0,00.0,0632.3,31.2
2021-12-05T13:55:00Z,00000200,01000000,0000.34,-000.03,0000.16,-000.01,-000.03,0000.47,0000.13,-000.05,0000.18,21.1,27.4,00.0,00.0,0632.1,31.2
2021-12-05T13:56:00Z,00000200,01000000,0000.76,0000.03,0000.18,-000.09,0000.17,0000.26,0000.31,0000.10,0000.13,21.1,27.4,,00.0,0631.9,31.2
2021-12-05T13:57:00Z,00000200,41000000,,,,,,,-000.16,0000.02,0000.45,21.2,27.4,,00.0,0632.0,31.3
2021-12-05T13:58:00Z,00000200,61000000,,,,,,,-000.18,-000.09,-000.30,21.0,27.5,,00.0,0631.1,31.3
2021-12-05T13:59:00Z,00000200,21000000,,,,,,,-000.02,0000.22,0000.24,21.0,27.6,,00.0,0630.9,31.3
